Погода в Малиновке

Россия / Томская область     56°05′16″N   83°36′13″E
темп.,
°C
ветер,
м/с
пор.,
м/с
влажн.,
%
обл.,
%
осадки,
мм/ч
давл.,
гПа
погр.,
м
15 апреля, чт
чт1501:00+3з3799100 0.1 1024218
04:00+2сз22100100 0.0 102565
07:00+2ю11100100 0.0 102526
10:00+2ююз25100100 0.1 1025107
13:00+3ю36100100 0.1 1024181
16:00+4ююз37100100 0.0 1023219
19:00+3ююз49100100 0.0 1022285
22:00+3ююз41199100 0.0 1020356
16 апреля, пт
пт1601:00+3юз51199100 0.1 1018353
04:00+3юз51099100 0.1 1016322
07:00+3юз51398100 0.1 1015471
10:00+5юз61498100 0.0 1013553
13:00+6юз71697100 0.4 1012553
16:00+11зюз61283100 0.0 10101115
19:00+1с71292100 0.8 1013529
22:00+1ссз41092100 1.3 1017629
17 апреля, сб
сб1701:00−1ссз6109072 1.3 1019627
04:00−4с69819 0.0 1022683
07:00−5ссв577457 0.0 1024647
10:00−4ссв346125 0.0 1024845
13:00−1св224926 0.0 1023959
16:00+1сз1145100 0.0 10211068
19:00+1зюз2351100 0.0 10201179
22:00−1з267285 0.0 1020188
18 апреля, вс
вс1801:00−2зюз38720 0.0 1020226
04:00−2юз387395 0.0 1020236
07:00−1ююз4872100 0.0 1020322
10:00+2ююз61056100 0.0 1018810
13:00+4ююз71049100 0.0 10161171
16:00+4ююз6952100 0.0 10141316
19:00+3ю51060100 0.0 1011555
22:00+1ююв41170100 0.0 1007307
19 апреля, пн
пн1901:00+1ююв71489100 0.3 1001658
04:00+2зюз61287100 1.3 998902
07:000зюз8138043 1.9 998792
10:00−1зюз81278100 0.1 999966
13:00−1зсз101383100 0.5 10051122
16:00−2сз81180100 0.4 10111159
19:00−3сз71087100 1.1 1016951
22:00−4сз5993100 0.7 1019804